GW7006 Weather Reports


time (UTC)temp
C
wind
direction
speed
KPH
gust
KPH
rain 1hr
cm
rain 24hr
cm
rain mn
cm
humidity
%
barometer
mb
20260509074508 12 338 0.0 1.6 0.00 0.00 0.00 72 1024.2
20260509073004 12 338 0.0 0.0 0.00 0.00 0.00 72 1023.9
20260509071603 13 360 0.0 0.0 0.00 0.00 0.00 71 1023.8
20260509070101 13 359 0.0 0.0 0.00 0.00 0.00 71 1023.6
20260509064611 15 195 0.0 0.0 0.00 0.00 0.00 66 1023.5
20260509063047 17 193 0.0 0.0 0.00 0.00 0.00 59 1023.3
20260509061531 18 144 0.0 6.4 0.00 0.00 0.00 57 1023.4
20260509060018 17 143 0.0 8.0 0.00 0.00 0.00 58 1023.1
20260509054604 18 248 1.6 8.0 0.00 0.00 0.00 54 1023.0
20260509053049 18 207 0.0 6.4 0.00 0.00 0.00 55 1023.0
20260509051533 18 11 0.0 8.0 0.00 0.00 0.00 56 1023.0
20260509050020 17 224 3.2 8.0 0.00 0.00 0.00 57 1023.0
20260509044505 18 215 1.6 12.9 0.00 0.00 0.00 55 1022.9
20260509043036 18 163 1.6 9.7 0.00 0.00 0.00 55 1023.0
20260509041552 17 229 3.2 11.3 0.00 0.00 0.00 58 1023.0
20260509040021 17 184 3.2 9.7 0.00 0.00 0.00 57 1022.9
20260509034518 17 174 3.2 9.7 0.00 0.00 0.00 57 1023.1
20260509033014 17 210 3.2 11.3 0.00 0.00 0.00 59 1023.2
20260509031600 17 1 4.8 11.3 0.00 0.00 0.00 59 1023.3
20260509030047 17 340 1.6 9.7 0.00 0.00 0.00 57 1023.4
20260509024541 17 171 4.8 9.7 0.00 0.00 0.00 58 1023.6
20260509023043 17 32 0.0 8.0 0.00 0.00 0.00 61 1023.7
20260509021536 16 359 1.6 11.3 0.00 0.00 0.00 62 1023.9
20260509020042 17 219 3.2 8.0 0.00 0.00 0.00 60 1024.0
20260509014518 16 266 4.8 12.9 0.00 0.00 0.00 59 1024.3
20260509013006 16 122 0.0 9.7 0.00 0.00 0.00 61 1024.5
20260509011542 16 334 1.6 6.4 0.00 0.00 0.00 63 1024.6
20260509010042 16 318 0.0 8.0 0.00 0.00 0.00 63 1024.5
20260509004535 16 8 1.6 9.7 0.00 0.00 0.00 62 1024.6
20260509003030 16 32 1.6 6.4 0.00 0.00 0.00 63 1024.6
20260509001525 15 93 0.0 6.4 0.00 0.00 0.00 66 1024.8
20260509000021 14 41 1.6 4.8 0.00 0.00 0.00 68 1024.9
20260508234514 13 307 0.0 3.2 0.00 0.00 0.00 74 1025.0
20260508233011 12 49 0.0 3.2 0.00 0.00 0.00 75 1024.9
20260508231600 11 324 0.0 1.6 0.00 0.00 0.00 82 1024.8
20260508230048 10 335 0.0 0.0 0.00 0.00 0.00 88 1025.0
20260508224531 10 335 0.0 0.0 0.00 0.00 0.00 89 1024.9
20260508223021 8 335 0.0 0.0 0.00 0.00 0.00 92 1024.8
20260508221507 8 349 0.0 0.0 0.00 0.00 0.00 94 1024.6
20260508220055 7 349 0.0 0.0 0.00 0.00 0.00 94 1024.5
20260508214543 7 349 0.0 0.0 0.00 0.00 0.00 95 1024.2
20260508213040 6 349 0.0 0.0 0.00 0.00 0.00 94 1024.1
20260508211536 6 26 0.0 0.0 0.00 0.00 0.00 95 1023.9
20260508210020 6 26 0.0 0.0 0.00 0.00 0.00 95 1023.9
20260508204520 6 26 0.0 0.0 0.00 0.00 0.00 95 1023.7
20260508203015 5 26 0.0 0.0 0.00 0.00 0.00 95 1023.5
20260508201510 6 26 0.0 0.0 0.00 0.00 0.00 95 1023.3
20260508200004 6 26 0.0 0.0 0.00 0.00 0.00 95 1023.2
20260508194603 6 26 0.0 0.0 0.00 0.00 0.00 95 1023.0
20260508193105 6 26 0.0 0.0 0.00 0.00 0.00 95 1022.9
20260508191535 5 26 0.0 0.0 0.00 0.00 0.00 95 1022.7
20260508190026 6 26 0.0 0.0 0.00 0.00 0.00 95 1022.4
20260508184530 6 26 0.0 0.0 0.00 0.00 0.00 95 1022.3
20260508183030 6 26 0.0 0.0 0.00 0.00 0.00 95 1022.3
20260508181543 5 26 0.0 0.0 0.00 0.00 0.00 96 1022.4
20260508180033 5 26 0.0 0.0 0.00 0.00 0.00 94 1022.2
20260508174522 5 26 0.0 0.0 0.00 0.00 0.00 95 1022.0
20260508173020 5 26 0.0 0.0 0.00 0.00 0.00 95 1022.0
20260508171511 5 26 0.0 0.0 0.00 0.00 0.00 93 1022.0
20260508170006 5 26 0.0 0.0 0.00 0.00 0.00 93 1021.8
20260508164515 6 26 0.0 0.0 0.00 0.00 0.00 93 1021.9
20260508163016 6 26 0.0 0.0 0.00 0.00 0.00 94 1021.9
20260508161518 6 353 0.0 0.0 0.00 0.00 0.00 93 1021.7
20260508160011 6 353 0.0 0.0 0.00 0.00 0.00 92 1021.9
20260508154504 6 353 0.0 0.0 0.00 0.00 0.00 91 1021.9
20260508153002 6 353 0.0 0.0 0.00 0.00 0.00 91 1021.9
20260508151555 6 353 0.0 0.0 0.00 0.00 0.00 91 1021.8
20260508150052 6 353 0.0 0.0 0.00 0.00 0.00 91 1022.0
20260508144600 5 353 0.0 0.0 0.00 0.00 0.00 91 1022.1
20260508143040 6 353 0.0 0.0 0.00 0.00 0.00 91 1022.0
20260508141534 6 353 0.0 0.0 0.00 0.00 0.00 91 1021.9
20260508140021 6 353 0.0 0.0 0.00 0.00 0.00 91 1021.9
20260508134530 6 352 0.0 0.0 0.00 0.00 0.00 90 1021.6
20260508133043 6 353 0.0 0.0 0.00 0.00 0.00 90 1021.6
20260508131531 6 353 0.0 0.0 0.00 0.00 0.00 90 1021.5
20260508130030 6 353 0.0 0.0 0.00 0.00 0.00 89 1021.7
20260508124526 6 353 0.0 0.0 0.00 0.00 0.00 89 1021.8
20260508123031 6 353 0.0 0.0 0.00 0.00 0.00 88 1021.9
20260508121530 6 353 0.0 0.0 0.00 0.00 0.00 88 1021.7
20260508120021 6 353 0.0 0.0 0.00 0.00 0.00 87 1021.7
20260508114525 5 352 0.0 0.0 0.00 0.00 0.00 85 1021.6
20260508113021 6 353 0.0 0.0 0.00 0.00 0.00 85 1021.5
20260508111515 6 353 0.0 0.0 0.00 0.00 0.00 84 1021.3
20260508110019 6 353 0.0 0.0 0.00 0.00 0.00 84 1021.2
20260508104515 7 353 0.0 1.6 0.00 0.00 0.00 82 1021.3
20260508103018 7 353 0.0 0.0 0.00 0.00 0.00 83 1021.0
20260508101512 7 353 0.0 0.0 0.00 0.00 0.00 82 1021.0
20260508100017 7 353 0.0 0.0 0.00 0.00 0.00 81 1020.9
20260508094521 7 352 0.0 0.0 0.00 0.00 0.00 80 1020.5
20260508093017 8 353 0.0 0.0 0.00 0.00 0.00 79 1020.4
20260508091508 8 353 0.0 0.0 0.00 0.00 0.00 76 1020.3
20260508090116 8 354 0.0 1.6 0.00 0.00 0.00 75 1020.0
20260508084549 9 1 0.0 6.4 0.00 0.00 0.00 75 1019.6
20260508083038 10 13 0.0 1.6 0.00 0.00 0.00 73 1019.6
20260508081532 10 305 0.0 4.8 0.00 0.00 0.00 72 1019.5
20260508080014 10 339 0.0 3.2 0.00 0.00 0.00 70 1019.2